sat.trackr.live / text

‹ back to catalog

EYCORE-1

NORAD 69011 · 2026-100AH

PAYLOAD ACTIVE UNKNOWN

§ Identity

Operator
Country
POL
Launch date
2026-05-03
Launch site
AFWTR
Launch vehicle
Mass (kg)
RCS (m²)

External: N2YO · Heavens-Above · Gunter

§ Orbital elements

Epoch: 2026-09-20T03:36:03.559680Z

Period
94.65 min
Inclination
97.3913°
Eccentricity
0.0006227
Mean motion
15.21332654 rev/d
Perigee alt
497.5 km
Apogee alt
506.1 km
Semi-major
6,880.0 km
B*
1.3176e-4
RAAN
159.3006°
Arg perigee
69.8548°
Mean anomaly
290.3357°
Rev number
2,124

§ Raw data

EYCORE-11 69011U 26100AH  26263.15004120  .00002882  00000+0  13176-3 0  99982 69011  97.3913 159.3006 0006227  69.8548 290.3357 15.21332654 21242

JSON: /api/v1/satellites/69011 · /tle

For live sub-satellite position, see the globe view (requires WebGL).

§ Visibility from observer

Set your observer location to see the next 7 days of passes ≥ 10°. The values pass through the URL so the page stays shareable.

No JS? Fill the form by hand. The geolocation button needs JavaScript.